This demonstration page uses our WeatherBlox Daily Observations layout. Learn more.

Hourly Observations for October 25, 2019

Temp ( °F °C ) Dew Point ( °F °C ) Humidity (%) Winds ( mph kmh ) Pressure ( in mb ) Visibility ( mi km ) Precip ( " mm )
12:15 am 00:15 Clear 32 0.2 23 -5 68 68 SW 3 6 30.45 1031 10 16.0934 0 0
12:35 am 00:35 Clear 32 0.1 23 -4.9 69 69 SSW 5 7 30.45 1031 10 16.0934 0 0
12:55 am 00:55 Clear 32 0 24 -4.7 71 71 SW 6 9 30.45 1031 10 16.0934 0 0
1:15 am 01:15 Clear 32 0 24 -4.7 71 71 SW 6 9 30.45 1031 10 16.0934 0 0
1:35 am 01:35 Clear 32 0.1 23 -4.8 70 70 SW 6 9 30.45 1031 10 16.0934 0 0
1:55 am 01:55 Clear 33 0.4 23 -4.8 68 68 SW 6 9 30.45 1031 10 16.0934 0 0
2:15 am 02:15 Clear 33 0.3 23 -4.9 68 68 SW 6 9 30.45 1031 10 16.0934 0 0
2:35 am 02:35 Clear 34 1.1 23 -5 64 64 WSW 5 7 30.45 1031 10 16.0934 0 0
2:55 am 02:55 Clear 34 0.9 23 -5.1 65 65 SW 3 6 30.45 1031 10 16.0934 0 0
3:15 am 03:15 Clear 33 0.5 23 -5.1 66 66 WSW 5 7 30.45 1031 10 16.0934 0 0
3:35 am 03:35 Clear 32 0 22 -5.3 68 68 W 7 11 30.45 1031 10 16.0934 0 0
3:55 am 03:55 Clear 33 0.6 23 -5 66 66 W 8 13 30.45 1031 10 16.0934 0 0
4:15 am 04:15 Clear 32 0.1 22 -5.3 67 67 W 7 11 30.45 1031 10 16.0934 0 0
4:35 am 04:35 Clear 32 0 22 -5.3 68 68 W 6 9 30.45 1031 10 16.0934 0 0
4:55 am 04:55 Clear 32 0 22 -5.3 68 68 WSW 3 6 30.42 1030 10 16.0934 0 0
5:15 am 05:15 Clear 31 -0.5 22 -5.5 69 69 SSW 5 7 30.42 1030 10 16.0934 0 0
5:35 am 05:35 Clear 31 -0.5 22 -5.3 70 70 SW 5 7 30.42 1030 10 16.0934 0 0
5:55 am 05:55 Clear 30 -1.3 22 -5.5 73 73 SW 5 7 30.45 1031 10 16.0934 0 0
6:15 am 06:15 Clear 30 -1.3 22 -5.5 73 73 SSW 5 7 30.45 1031 10 16.0934 0 0
6:35 am 06:35 Clear 30 -1.1 23 -5.1 75 75 SW 5 7 30.45 1031 10 16.0934 0 0
6:55 am 06:55 Clear 30 -1.2 22 -5.3 74 74 SW 5 7 30.45 1031 10 16.0934 0 0
7:15 am 07:15 Clear 30 -1.3 22 -5.3 75 75 SSW 3 6 30.45 1031 10 16.0934 0 0
7:35 am 07:35 Clear 28 -2.3 22 -5.5 79 79 SW 6 9 30.45 1031 10 16.0934 0 0
7:55 am 07:55 Clear 28 -2.2 22 -5.5 78 78 SW 6 9 30.45 1031 10 16.0934 0 0
8:15 am 08:15 Sunny 28 -2.3 22 -5.5 79 79 SSW 6 9 30.45 1031 10 16.0934 0 0
8:35 am 08:35 Sunny 28 -2.1 22 -5.4 78 78 SSW 7 11 30.45 1031 10 16.0934 0 0
8:55 am 08:55 Sunny 29 -1.7 23 -5 78 78 SW 6 9 30.45 1031 10 16.0934 0 0
9:15 am 09:15 Sunny 31 -0.5 24 -4.5 75 75 SSW 5 7 30.42 1030 10 16.0934 0 0
9:35 am 09:35 Sunny 33 0.7 25 -3.7 73 73 SW 8 13 30.42 1030 10 16.0934 0 0
9:55 am 09:55 Sunny 36 2.3 26 -3.3 67 67 SW 7 11 30.42 1030 10 16.0934 0 0
10:15 am 10:15 Sunny 39 3.9 27 -2.9 62 62 SW 7 11 30.36 1028 10 16.0934 0 0
10:35 am 10:35 Sunny 42 5.3 27 -2.9 56 56 SW 10 17 30.33 1027 10 16.0934 0 0
10:55 am 10:55 Sunny 43 6.1 27 -3 52 52 SW 8 13 30.33 1027 10 16.0934 0 0
11:15 am 11:15 Sunny 46 7.6 27 -2.6 49 49 SW 10 17 30.33 1027 10 16.0934 0 0
11:35 am 11:35 Sunny 49 9.2 27 -2.6 44 44 SW 10 17 30.3 1026 10 16.0934 0 0
11:55 am 11:55 Sunny 50 10.1 27 -3 40 40 SW 10 17 30.27 1025 10 16.0934 0 0
12:15 pm 12:15 Sunny 53 11.6 28 -2.5 38 38 SW 13 20 30.24 1024 10 16.0934 0 0
12:35 pm 12:35 Sunny 54 12.1 27 -2.7 36 36 SW 12 19 30.24 1024 10 16.0934 0 0
12:55 pm 12:55 Sunny 55 12.9 26 -3.2 33 33 SW 12 19 30.21 1023 10 16.0934 0 0
1:15 pm 13:15 Sunny 56 13.4 26 -3.2 32 32 SW 15 24 30.21 1023 10 16.0934 0 0
1:35 pm 13:35 Sunny 57 13.7 27 -2.7 32 32 SW 14 22 30.18 1022 10 16.0934 0 0
1:55 pm 13:55 Sunny 57 14.1 27 -2.6 32 32 SW 10 17 30.18 1022 10 16.0934 0 0
2:15 pm 14:15 Sunny 60 15.3 27 -2.8 29 29 SSW 13 20 30.12 1020 10 16.0934 0 0
2:35 pm 14:35 Sunny 60 15.5 26 -3.2 28 28 SW 12 19 30.09 1019 10 16.0934 0 0
2:55 pm 14:55 Sunny 60 15.7 26 -3.4 27 27 SW 8 13 30.09 1019 10 16.0934 0 0
3:15 pm 15:15 Sunny 61 15.9 26 -3.4 27 27 SW 12 19 30.09 1019 10 16.0934 0 0
3:35 pm 15:35 Sunny 61 16.1 26 -3.5 26 26 WSW 8 13 30.09 1019 10 16.0934 0 0
3:55 pm 15:55 Sunny 61 15.9 26 -3.6 26 26 SW 8 13 30.09 1019 10 16.0934 0 0
4:15 pm 16:15 Sunny 61 16.3 25 -3.8 25 25 SW 8 13 30.09 1019 10 16.0934 0 0
4:35 pm 16:35 Sunny 61 16 25 -4.1 25 25 SW 6 9 30.09 1019 10 16.0934 0 0
4:55 pm 16:55 Sunny 61 16 24 -4.2 25 25 SSW 12 19 30.09 1019 10 16.0934 0 0
5:15 pm 17:15 Sunny 60 15.7 24 -4.2 25 25 SW 10 17 30.09 1019 10 16.0934 0 0
5:35 pm 17:35 Sunny 60 15.6 24 -4.6 25 25 SW 9 15 30.06 1018 10 16.0934 0 0
5:55 pm 17:55 Sunny 59 15.1 24 -4.6 26 26 SSW 8 13 30.06 1018 10 16.0934 0 0
6:15 pm 18:15 Sunny 56 13.3 26 -3.1 32 32 S 9 15 30.09 1019 10 16.0934 0 0
6:35 pm 18:35 Sunny 53 11.9 26 -3.2 35 35 S 10 17 30.09 1019 10 16.0934 0 0
6:55 pm 18:55 Clear 51 10.4 26 -3.5 38 38 S 8 13 30.09 1019 10 16.0934 0 0
7:15 pm 19:15 Clear 48 8.9 26 -3.6 41 41 S 7 11 30.12 1020 10 16.0934 0 0
7:35 pm 19:35 Clear 46 7.7 25 -3.7 45 45 S 8 13 30.12 1020 10 16.0934 0 0
7:55 pm 19:55 Clear 45 7 25 -3.9 46 46 S 9 15 30.12 1020 10 16.0934 0 0
8:15 pm 20:15 Clear 44 6.8 26 -3.6 48 48 S 8 13 30.12 1020 10 16.0934 0 0
8:35 pm 20:35 Clear 42 5.8 26 -3.6 51 51 S 8 13 30.15 1021 10 16.0934 0 0
8:55 pm 20:55 Clear 42 5.5 26 -3.4 53 53 S 8 13 30.15 1021 10 16.0934 0 0
9:15 pm 21:15 Clear 42 5.4 26 -3.2 54 54 S 8 13 30.15 1021 10 16.0934 0 0
9:35 pm 21:35 Clear 42 5.3 26 -3.2 55 55 S 9 15 30.12 1020 10 16.0934 0 0
9:55 pm 21:55 Clear 42 5.6 26 -3.1 54 54 S 8 13 30.12 1020 10 16.0934 0 0
10:15 pm 22:15 Clear 42 5.7 27 -3 54 54 S 9 15 30.12 1020 10 16.0934 0 0
10:35 pm 22:35 Clear 42 5.6 27 -3 54 54 S 8 13 30.12 1020 10 16.0934 0 0
10:55 pm 22:55 Clear 42 5.6 26 -3.1 54 54 S 10 17 30.12 1020 10 16.0934 0 0
11:15 pm 23:15 Clear 41 5.1 26 -3.2 55 55 S 9 15 30.12 1020 10 16.0934 0 0
11:35 pm 23:35 Clear 41 5.2 26 -3.3 55 55 S 9 15 30.09 1019 10 16.0934 0 0
11:55 pm 23:55 Clear 40 4.3 26 -3.5 57 57 S 8 13 30.09 1019 10 16.0934 0 0

Powered by AerisWeather